This is the latest recevied weather packets stored in our database for station/object N2ZVN. If no packets are shown the sender has not sent any weather packets the latest 10 day(s).
| Time | Temp. | Humidity | Pressure | Rain* | Wind** | Luminosity | Snow |
|---|---|---|---|---|---|---|---|
| 1777317315 | 15.56° C | 51% | 1022.4 hPa | 0 mm | - | 575 W/m² | - |
| 1777317009 | 16.11° C | 52% | 1022.5 hPa | 0 mm | - | 385 W/m² | - |
| 1777316708 | 16.11° C | 52% | 1022.5 hPa | 0 mm | - | 471 W/m² | - |
| 1777316403 | 15.56° C | 52% | 1022.5 hPa | 0 mm | - | 623 W/m² | - |
| 1777316101 | 15.56° C | 53% | 1022.6 hPa | 0 mm | - | 640 W/m² | - |
| 1777315799 | 16.11° C | 50% | 1022.8 hPa | 0 mm | - | 729 W/m² | - |
| 1777315497 | 16.11° C | 50% | 1022.7 hPa | 0 mm | - | 409 W/m² | - |
| 1777315195 | 16.11° C | 52% | 1022.7 hPa | 0 mm | - | 373 W/m² | - |
| 1777314891 | 15.56° C | 53% | 1022.8 hPa | 0 mm | - | 522 W/m² | - |
| 1777314587 | 15.56° C | 56% | 1022.8 hPa | 0 mm | - | 430 W/m² | - |
| 1777314284 | 15.56° C | 52% | 1022.7 hPa | 0 mm | - | 396 W/m² | - |
| 1777313981 | 15.56° C | 55% | 1022.9 hPa | 0 mm | - | 470 W/m² | - |
| 1777313678 | 15.56° C | 52% | 1023 hPa | 0 mm | - | 759 W/m² | - |
| 1777313376 | 15.56° C | 53% | 1023.1 hPa | 0 mm | - | 585 W/m² | - |
| 1777313072 | 15.56° C | 53% | 1023.1 hPa | 0 mm | - | 429 W/m² | - |
| 1777312768 | 15.56° C | 53% | 1023.5 hPa | 0 mm | - | 505 W/m² | - |
| 1777312465 | 15.56° C | 54% | 1023.2 hPa | 0 mm | - | 634 W/m² | - |
| 1777312163 | 15° C | 53% | 1023.2 hPa | 0 mm | - | 699 W/m² | - |
| 1777311860 | 15° C | 53% | 1023.2 hPa | 0 mm | - | 456 W/m² | - |
| 1777311557 | 15° C | 52% | 1023.4 hPa | 0 mm | - | 380 W/m² | - |
| 1777311254 | 15.56° C | 53% | 1023 hPa | 0 mm | - | 665 W/m² | - |
| 1777310952 | 15° C | 52% | 1023.3 hPa | 0 mm | - | 772 W/m² | - |
| 1777310650 | 15.56° C | 50% | 1023.3 hPa | 0 mm | - | 539 W/m² | - |
| 1777310347 | 16.11° C | 47% | 1023.3 hPa | 0 mm | - | 700 W/m² | - |
| 1777310044 | 16.67° C | 46% | 1023.2 hPa | 0 mm | - | 705 W/m² | - |
* Rain latest hour (hover to see other rain measurements)
** Current wind speed in m/s (hover to see current wind gust speed)